Погода в Гюльнаре

Турция     36°20′10″N   33°24′23″E
темп.,
°C
ветер,
м/с
пор.,
м/с
влажн.,
%
обл.,
%
осадки,
мм/ч
давл.,
гПа
погр.,
м
16 июня, ср
ср1600:00+15с22880 0.0 101028
03:00+14ссз11830 0.0 101025
06:00+14ссз11860 0.0 101036
09:00+20ююз45610 0.0 1010907
12:00+22юз1011520 0.0 10101306
15:00+22юз1112510 0.0 10091102
18:00+20юз55580 0.0 1010562
21:00+16зсз33740 0.0 101151
17 июня, чт
чт1700:00+18ссз44420 0.0 101348
03:00+17с33470 0.0 101329
06:00+16ссв22570 0.0 101426
09:00+23юв12350 0.0 10141126
12:00+24ю53481 0.0 1014862
15:00+25ююз54410 0.0 1014872
18:00+24ююз44430 0.0 1014466
21:00+19сз22610 0.0 101422
18 июня, пт
пт1800:00+21ссз33440 0.0 101427
03:00+21с44400 0.0 101345
06:00+20с33450 0.0 101343
09:00+26зюз03330 0.0 1013907
12:00+28ююз45360 0.0 10121514
15:00+28ююз54400 0.0 1011737
18:00+26юз44450 0.0 1010409
21:00+21ссз11630 0.0 101016
19 июня, сб
сб1900:00+23с22490 0.0 101018
03:00+19св11580 0.0 100918
06:00+19ссз01610 0.0 101022
09:00+25ю31500 0.0 1010538
12:00+28ю53490 0.0 1010768
15:00+28ююз55440 0.0 1009619
18:00+27юз35390 0.0 1008444
21:00+19сз12620 0.0 100923
20 июня, вс
вс2000:00+18с11620 0.0 100922
03:00+16в11690 0.0 101019
06:00+16св11901 0.0 101129
09:00+24ю31540 0.0 1011620
12:00+27ю64450 0.0 1011893
15:00+27ю54340 0.0 1010809
18:00+26ююз33300 0.0 1010557
21:00+17з11720 0.0 101120